User: anonymous   Login
Location: Brno
(49.2000°N, 16.6330°E)
Time: 18:40:02
(UTC+02:00)
Language:

CARTOSAT-1 - Orbit

View from above orbital plane
View from above orbital plane
View from above satellite
View from above satellite

Ground track
Ground track

The orbit data is extracted from the following two-line orbital elements,

1 28649U 05017A   17087.82088499 +.00000207 +00000-0 +31631-4 0  9990
2 28649 097.8666 163.4661 0000732 002.7473 357.3727 14.83448646644067
Epoch (UTC): 28 March 2017 19:42:04
Eccentricity: 0.0000732
inclination: 97.8666°
perigee height: 618 km
apogee height: 619 km
right ascension of ascending node: 163.4661°
argument of perigee: 2.7473°
revolutions per day: 14.83448646
mean anomaly at epoch: 357.3727°
orbit number at epoch: 64406

The dashed part of the orbit path shows where the satellite is in the earth's shadow,  

DLR